Time,TemperatureF,DewpointF,PressureIn,WindDirection,WindDirectionDegrees,WindSpeedMPH,WindSpeedGustMPH,Humidity,HourlyPrecipIn,Conditions,Clouds,dailyrainin,SoftwareType,DateUTC
2013-04-13 00:06:00,36.0,31.8,30.17,West,270,0.0,1.3,85,0.00,,,0.00,WUHU21636XXSP,2013-04-13 05:06:00,
2013-04-13 00:16:00,35.8,31.8,30.17,West,270,0.0,2.4,86,0.00,,,0.00,WUHU21636XXSP,2013-04-13 05:16:00,
2013-04-13 00:26:00,35.8,31.8,30.18,West,270,0.0,1.1,86,0.00,,,0.00,WUHU21636XXSP,2013-04-13 05:26:00,
2013-04-13 00:36:00,35.8,31.8,30.18,West,270,0.0,0.0,86,0.00,,,0.00,WUHU21636XXSP,2013-04-13 05:36:00,
2013-04-13 00:46:00,35.8,31.8,30.18,West,270,0.0,0.0,87,0.00,,,0.00,WUHU21636XXSP,2013-04-13 05:46:00,
2013-04-13 00:56:00,35.8,31.8,30.19,West,270,0.0,0.0,86,0.00,,,0.00,WUHU21636XXSP,2013-04-13 05:56:00,
2013-04-13 01:06:00,35.4,31.5,30.18,West,270,0.0,0.0,86,0.00,,,0.00,WUHU21636XXSP,2013-04-13 06:06:00,
2013-04-13 01:16:00,35.2,31.3,30.18,West,270,0.0,0.0,86,0.00,,,0.00,WUHU21636XXSP,2013-04-13 06:16:00,
2013-04-13 01:26:00,34.9,30.7,30.18,West,270,0.0,0.0,85,0.00,,,0.00,WUHU21636XXSP,2013-04-13 06:26:00,
2013-04-13 01:36:00,34.5,30.4,30.18,WNW,292,3.1,3.1,85,0.00,,,0.00,WUHU21636XXSP,2013-04-13 06:36:00,
2013-04-13 01:46:00,34.5,30.6,30.18,WNW,292,2.4,4.2,86,0.00,,,0.00,WUHU21636XXSP,2013-04-13 06:46:00,
2013-04-13 01:57:00,34.5,30.6,30.18,NW,315,0.2,3.1,86,0.00,,,0.00,WUHU21636XXSP,2013-04-13 06:57:00,
2013-04-13 02:08:00,34.5,30.6,30.17,NW,315,1.5,3.5,87,0.00,,,0.00,WUHU21636XXSP,2013-04-13 07:08:00,
2013-04-13 02:18:00,34.2,30.6,30.17,WNW,292,0.6,3.8,87,0.00,,,0.00,WUHU21636XXSP,2013-04-13 07:18:00,
2013-04-13 02:28:00,34.0,30.4,30.17,WNW,292,3.1,3.3,87,0.00,,,0.00,WUHU21636XXSP,2013-04-13 07:28:00,
2013-04-13 02:38:00,33.6,30.2,30.17,WNW,292,0.4,3.1,88,0.00,,,0.00,WUHU21636XXSP,2013-04-13 07:38:00,
2013-04-13 02:48:00,33.4,29.8,30.16,WNW,292,2.0,4.4,87,0.00,,,0.00,WUHU21636XXSP,2013-04-13 07:48:00,
2013-04-13 02:58:00,33.1,29.5,30.16,WNW,292,0.8,2.0,87,0.00,,,0.00,WUHU21636XXSP,2013-04-13 07:58:00,
2013-04-13 03:08:00,33.1,29.5,30.15,WNW,292,0.8,2.6,87,0.00,,,0.00,WUHU21636XXSP,2013-04-13 08:08:00,
2013-04-13 03:18:00,33.4,29.8,30.15,WNW,292,0.0,2.0,87,0.00,,,0.00,WUHU21636XXSP,2013-04-13 08:18:00,
2013-04-13 03:28:00,33.1,29.5,30.14,WNW,292,0.0,1.7,87,0.00,,,0.00,WUHU21636XXSP,2013-04-13 08:28:00,
2013-04-13 03:38:00,32.9,29.3,30.14,WNW,292,2.6,2.6,87,0.00,,,0.00,WUHU21636XXSP,2013-04-13 08:38:00,
2013-04-13 03:49:00,32.5,28.9,30.14,WNW,292,0.0,2.6,87,0.00,,,0.00,WUHU21636XXSP,2013-04-13 08:49:00,
2013-04-13 03:59:00,32.5,28.9,30.13,WNW,292,0.8,0.8,87,0.00,,,0.00,WUHU21636XXSP,2013-04-13 08:59:00,
2013-04-13 04:09:00,32.5,28.9,30.12,WNW,292,1.5,2.4,87,0.00,,,0.00,WUHU21636XXSP,2013-04-13 09:09:00,
2013-04-13 04:19:00,32.5,28.9,30.12,WNW,292,0.8,1.5,87,0.00,,,0.00,WUHU21636XXSP,2013-04-13 09:19:00,
2013-04-13 04:29:00,32.5,28.9,30.11,WNW,292,2.6,3.1,87,0.00,,,0.00,WUHU21636XXSP,2013-04-13 09:29:00,
2013-04-13 04:39:00,32.5,28.9,30.12,WNW,292,1.3,3.3,87,0.00,,,0.00,WUHU21636XXSP,2013-04-13 09:39:00,
2013-04-13 04:49:00,32.2,28.8,30.11,WNW,292,0.0,1.3,87,0.00,,,0.00,WUHU21636XXSP,2013-04-13 09:49:00,
2013-04-13 04:59:00,32.2,28.8,30.11,WNW,292,0.0,0.0,87,0.00,,,0.00,WUHU21636XXSP,2013-04-13 09:59:00,
2013-04-13 05:09:00,31.8,28.4,30.11,NW,315,1.1,1.1,87,0.00,,,0.00,WUHU21636XXSP,2013-04-13 10:09:00,
2013-04-13 05:19:00,31.3,27.5,30.11,NW,315,0.0,5.1,87,0.00,,,0.00,WUHU21636XXSP,2013-04-13 10:19:00,
2013-04-13 05:29:00,30.7,27.3,30.11,NW,315,0.0,1.5,87,0.00,,,0.00,WUHU21636XXSP,2013-04-13 10:29:00,
2013-04-13 05:39:00,30.4,27.0,30.11,NW,315,0.0,1.1,87,0.00,,,0.00,WUHU21636XXSP,2013-04-13 10:39:00,
2013-04-13 05:49:00,30.4,27.0,30.11,NW,315,0.0,1.7,87,0.00,,,0.00,WUHU21636XXSP,2013-04-13 10:49:00,
2013-04-13 05:59:00,30.4,27.0,30.10,NW,315,0.0,1.7,88,0.00,,,0.00,WUHU21636XXSP,2013-04-13 10:59:00,
2013-04-13 06:09:00,30.6,27.3,30.10,NW,315,1.3,1.3,88,0.00,,,0.00,WUHU21636XXSP,2013-04-13 11:09:00,
2013-04-13 06:19:00,30.0,26.8,30.09,NW,315,0.0,4.2,88,0.00,,,0.00,WUHU21636XXSP,2013-04-13 11:19:00,
2013-04-13 06:29:00,30.4,27.1,30.09,NW,315,0.0,0.0,88,0.00,,,0.00,WUHU21636XXSP,2013-04-13 11:29:00,
2013-04-13 06:39:00,30.4,27.1,30.09,NW,315,0.0,0.0,88,0.00,,,0.00,WUHU21636XXSP,2013-04-13 11:39:00,
2013-04-13 06:50:00,30.2,27.0,30.09,NW,315,0.0,0.0,88,0.00,,,0.00,WUHU21636XXSP,2013-04-13 11:50:00,
2013-04-13 07:00:00,30.4,27.1,30.08,NW,315,0.0,0.0,88,0.00,,,0.00,WUHU21636XXSP,2013-04-13 12:00:00,
2013-04-13 07:10:00,30.4,27.1,30.08,NW,315,0.0,0.0,88,0.00,,,0.00,WUHU21636XXSP,2013-04-13 12:10:00,
2013-04-13 07:20:00,30.4,27.1,30.08,NW,315,0.0,0.0,88,0.00,,,0.00,WUHU21636XXSP,2013-04-13 12:20:00,
2013-04-13 07:30:00,30.0,26.6,30.08,NW,315,0.0,0.0,87,0.00,,,0.00,WUHU21636XXSP,2013-04-13 12:30:00,
2013-04-13 07:40:00,30.0,26.6,30.07,NW,315,0.0,0.0,87,0.00,,,0.00,WUHU21636XXSP,2013-04-13 12:40:00,
2013-04-13 07:50:00,30.0,26.6,30.07,NW,315,0.0,0.0,87,0.00,,,0.00,WUHU21636XXSP,2013-04-13 12:50:00,
2013-04-13 08:00:00,29.8,26.4,30.07,NW,315,0.0,0.0,86,0.00,,,0.00,WUHU21636XXSP,2013-04-13 13:00:00,
2013-04-13 08:10:00,29.8,26.4,30.07,NW,315,0.0,0.0,86,0.00,,,0.00,WUHU21636XXSP,2013-04-13 13:10:00,
2013-04-13 08:22:00,29.8,26.4,30.06,NW,315,0.0,0.0,86,0.00,,,0.00,WUHU21636XXSP,2013-04-13 13:22:00,
2013-04-13 08:32:00,29.8,26.4,30.06,NW,315,0.0,0.0,86,0.00,,,0.00,WUHU21636XXSP,2013-04-13 13:32:00,
2013-04-13 08:42:00,30.0,26.6,30.06,NW,315,0.0,0.0,87,0.00,,,0.00,WUHU21636XXSP,2013-04-13 13:42:00,
2013-04-13 08:52:00,30.4,27.0,30.05,NW,315,0.0,0.0,87,0.00,,,0.00,WUHU21636XXSP,2013-04-13 13:52:00,
2013-04-13 09:02:00,30.7,27.5,30.05,NW,315,0.0,0.0,88,0.00,,,0.00,WUHU21636XXSP,2013-04-13 14:02:00,
2013-04-13 09:12:00,31.5,28.2,30.04,NW,315,0.0,0.0,88,0.00,,,0.00,WUHU21636XXSP,2013-04-13 14:12:00,
2013-04-13 09:22:00,32.2,29.3,30.04,SW,225,0.0,0.0,89,0.00,,,0.00,WUHU21636XXSP,2013-04-13 14:22:00,
2013-04-13 09:32:00,32.7,29.8,30.03,South,180,0.0,0.0,89,0.00,,,0.00,WUHU21636XXSP,2013-04-13 14:32:00,
2013-04-13 09:43:00,34.0,30.9,30.03,South,180,2.0,2.0,89,0.00,,,0.00,WUHU21636XXSP,2013-04-13 14:43:00,
2013-04-13 09:53:00,35.2,32.5,30.02,SSE,157,0.0,3.3,90,0.00,,,0.00,WUHU21636XXSP,2013-04-13 14:53:00,
2013-04-13 10:03:00,36.5,33.8,30.01,South,180,2.2,5.3,90,0.00,,,0.00,WUHU21636XXSP,2013-04-13 15:03:00,
2013-04-13 10:13:00,39.4,36.9,30.00,SSW,202,11.1,20.8,91,0.00,,,0.00,WUHU21636XXSP,2013-04-13 15:13:00,
2013-04-13 10:24:00,41.9,37.6,30.00,SSW,202,10.9,25.2,85,0.00,,,0.00,WUHU21636XXSP,2013-04-13 15:24:00,
2013-04-13 10:34:00,43.5,38.3,29.99,SSW,202,14.3,21.9,82,0.00,,,0.00,WUHU21636XXSP,2013-04-13 15:34:00,
2013-04-13 10:44:00,45.0,38.8,29.99,SW,225,16.5,27.5,79,0.00,,,0.00,WUHU21636XXSP,2013-04-13 15:44:00,
2013-04-13 10:54:00,45.9,39.4,29.97,South,180,15.6,29.0,78,0.00,,,0.00,WUHU21636XXSP,2013-04-13 15:54:00,
2013-04-13 11:04:00,46.9,39.0,29.96,South,180,20.1,28.8,74,0.00,,,0.00,WUHU21636XXSP,2013-04-13 16:04:00,
2013-04-13 11:15:00,48.0,39.0,29.96,SSW,202,17.2,30.6,71,0.00,,,0.00,WUHU21636XXSP,2013-04-13 16:15:00,
2013-04-13 11:25:00,48.9,39.7,29.96,SSW,202,15.8,29.7,71,0.00,,,0.00,WUHU21636XXSP,2013-04-13 16:25:00,
2013-04-13 11:35:00,49.5,39.6,29.95,SSE,157,17.0,30.6,69,0.00,,,0.00,WUHU21636XXSP,2013-04-13 16:35:00,
2013-04-13 11:45:00,50.4,41.2,29.94,WSW,247,19.2,25.9,71,0.00,,,0.00,WUHU21636XXSP,2013-04-13 16:45:00,
2013-04-13 11:55:00,51.1,40.8,29.93,SSW,202,15.4,33.7,68,0.00,,,0.00,WUHU21636XXSP,2013-04-13 16:55:00,
2013-04-13 12:05:00,52.2,41.9,29.93,SSW,202,17.8,30.6,68,0.00,,,0.00,WUHU21636XXSP,2013-04-13 17:05:00,
2013-04-13 12:15:00,52.9,42.1,29.92,SW,225,14.0,30.6,67,0.00,,,0.00,WUHU21636XXSP,2013-04-13 17:15:00,
2013-04-13 12:25:00,53.8,41.7,29.90,SW,225,21.4,34.2,64,0.00,,,0.00,WUHU21636XXSP,2013-04-13 17:25:00,
2013-04-13 12:35:00,54.7,41.7,29.90,SSW,202,25.7,35.3,62,0.00,,,0.00,WUHU21636XXSP,2013-04-13 17:35:00,
2013-04-13 12:45:00,55.9,42.6,29.89,SW,225,18.5,33.3,62,0.00,,,0.00,WUHU21636XXSP,2013-04-13 17:45:00,
2013-04-13 12:56:00,56.1,42.8,29.88,SSW,202,18.1,31.5,61,0.00,,,0.00,WUHU21636XXSP,2013-04-13 17:56:00,
2013-04-13 13:06:00,56.8,43.5,29.88,SW,225,17.2,30.6,61,0.00,,,0.00,WUHU21636XXSP,2013-04-13 18:06:00,
2013-04-13 13:16:00,57.4,42.6,29.87,SW,225,22.8,33.3,58,0.00,,,0.00,WUHU21636XXSP,2013-04-13 18:16:00,
2013-04-13 13:27:00,58.1,43.7,29.87,SSW,202,17.2,32.4,59,0.00,,,0.00,WUHU21636XXSP,2013-04-13 18:27:00,
2013-04-13 13:37:00,58.3,43.9,29.86,SSW,202,13.6,27.5,59,0.00,,,0.00,WUHU21636XXSP,2013-04-13 18:37:00,
2013-04-13 13:47:00,59.5,44.6,29.85,SSW,202,13.6,31.3,58,0.00,,,0.00,WUHU21636XXSP,2013-04-13 18:47:00,
2013-04-13 13:57:00,60.6,44.8,29.83,SW,225,18.3,30.4,56,0.00,,,0.00,WUHU21636XXSP,2013-04-13 18:57:00,
2013-04-13 14:07:00,61.5,44.6,29.83,West,270,13.4,27.7,54,0.00,,,0.00,WUHU21636XXSP,2013-04-13 19:07:00,
2013-04-13 14:17:00,61.7,44.8,29.82,South,180,8.7,30.1,54,0.00,,,0.00,WUHU21636XXSP,2013-04-13 19:17:00,
2013-04-13 14:27:00,62.4,45.0,29.81,WSW,247,9.8,28.6,53,0.00,,,0.00,WUHU21636XXSP,2013-04-13 19:27:00,
2013-04-13 14:37:00,63.1,45.1,29.80,SW,225,14.9,30.4,52,0.00,,,0.00,WUHU21636XXSP,2013-04-13 19:37:00,
2013-04-13 14:47:00,63.7,45.5,29.79,SW,225,13.8,28.6,52,0.00,,,0.00,WUHU21636XXSP,2013-04-13 19:47:00,
2013-04-13 14:57:00,64.2,45.1,29.79,SW,225,13.4,26.6,50,0.00,,,0.00,WUHU21636XXSP,2013-04-13 19:57:00,
2013-04-13 15:07:00,65.1,46.0,29.78,SSW,202,18.3,30.6,50,0.00,,,0.00,WUHU21636XXSP,2013-04-13 20:07:00,
2013-04-13 15:17:00,65.8,45.5,29.77,SSW,202,13.4,33.3,48,0.00,,,0.00,WUHU21636XXSP,2013-04-13 20:17:00,
2013-04-13 15:27:00,66.4,45.5,29.77,SW,225,17.2,30.6,47,0.00,,,0.00,WUHU21636XXSP,2013-04-13 20:27:00,
2013-04-13 15:37:00,66.9,46.6,29.76,West,270,15.6,33.1,48,0.00,,,0.00,WUHU21636XXSP,2013-04-13 20:37:00,
2013-04-13 15:47:00,67.1,45.0,29.75,SSW,202,17.0,31.0,45,0.00,,,0.00,WUHU21636XXSP,2013-04-13 20:47:00,
2013-04-13 15:57:00,67.1,44.2,29.75,SW,225,16.5,28.8,44,0.00,,,0.00,WUHU21636XXSP,2013-04-13 20:57:00,
2013-04-13 16:08:00,66.9,44.1,29.74,South,180,20.3,30.8,44,0.00,,,0.00,WUHU21636XXSP,2013-04-13 21:08:00,
2013-04-13 16:18:00,67.8,44.4,29.74,SSW,202,19.0,32.8,43,0.00,,,0.00,WUHU21636XXSP,2013-04-13 21:18:00,
2013-04-13 16:28:00,68.5,43.9,29.73,SW,225,14.3,30.8,41,0.00,,,0.00,WUHU21636XXSP,2013-04-13 21:28:00,
2013-04-13 16:38:00,67.8,44.4,29.72,SW,225,11.4,32.6,43,0.00,,,0.00,WUHU21636XXSP,2013-04-13 21:38:00,
2013-04-13 16:48:00,68.2,44.1,29.72,SW,225,17.8,29.9,42,0.00,,,0.00,WUHU21636XXSP,2013-04-13 21:48:00,
2013-04-13 16:58:00,68.7,43.9,29.71,South,180,16.5,25.2,41,0.00,,,0.00,WUHU21636XXSP,2013-04-13 21:58:00,
2013-04-13 17:08:00,67.8,42.6,29.71,SSW,202,17.8,33.1,40,0.00,,,0.00,WUHU21636XXSP,2013-04-13 22:08:00,
2013-04-13 17:18:00,67.6,43.0,29.70,SSW,202,17.8,29.0,41,0.00,,,0.00,WUHU21636XXSP,2013-04-13 22:18:00,
2013-04-13 17:28:00,67.6,43.0,29.70,South,180,18.7,26.8,41,0.00,,,0.00,WUHU21636XXSP,2013-04-13 22:28:00,
2013-04-13 17:38:00,67.8,43.7,29.69,SSW,202,12.7,27.7,41,0.00,,,0.00,WUHU21636XXSP,2013-04-13 22:38:00,
2013-04-13 17:48:00,68.2,42.8,29.68,SSW,202,13.6,24.8,40,0.00,,,0.00,WUHU21636XXSP,2013-04-13 22:48:00,
2013-04-13 17:58:00,68.0,42.8,29.67,SSW,202,14.9,27.0,40,0.00,,,0.00,WUHU21636XXSP,2013-04-13 22:58:00,
2013-04-13 18:08:00,67.8,43.7,29.67,SSE,157,12.3,21.9,42,0.00,,,0.00,WUHU21636XXSP,2013-04-13 23:08:00,
2013-04-13 18:18:00,67.6,43.0,29.66,SSW,202,15.6,30.4,41,0.00,,,0.00,WUHU21636XXSP,2013-04-13 23:18:00,
2013-04-13 18:28:00,67.6,43.0,29.65,SSW,202,12.3,22.3,41,0.00,,,0.00,WUHU21636XXSP,2013-04-13 23:28:00,
2013-04-13 18:38:00,68.0,43.3,29.65,SSW,202,8.2,23.4,41,0.00,,,0.00,WUHU21636XXSP,2013-04-13 23:38:00,
2013-04-13 18:48:00,67.3,42.6,29.64,SSE,157,9.8,22.5,41,0.00,,,0.00,WUHU21636XXSP,2013-04-13 23:48:00,
2013-04-13 18:58:00,66.6,43.2,29.64,SSE,157,5.8,17.8,43,0.00,,,0.00,WUHU21636XXSP,2013-04-13 23:58:00,
2013-04-13 19:08:00,65.8,43.2,29.64,South,180,4.0,16.1,44,0.00,,,0.00,WUHU21636XXSP,2013-04-14 00:08:00,
2013-04-13 19:18:00,65.3,42.6,29.63,SE,135,7.1,15.2,44,0.00,,,0.00,WUHU21636XXSP,2013-04-14 00:18:00,
2013-04-13 19:28:00,64.8,42.1,29.63,SE,135,6.2,13.4,44,0.00,,,0.00,WUHU21636XXSP,2013-04-14 00:28:00,
2013-04-13 19:38:00,64.4,42.4,29.62,ESE,112,9.1,15.2,45,0.00,,,0.00,WUHU21636XXSP,2013-04-14 00:38:00,
2013-04-13 19:48:00,64.0,42.1,29.62,SE,135,3.5,11.4,45,0.00,,,0.00,WUHU21636XXSP,2013-04-14 00:48:00,
2013-04-13 19:58:00,63.5,42.6,29.61,SE,135,8.9,14.7,47,0.00,,,0.00,WUHU21636XXSP,2013-04-14 00:58:00,
2013-04-13 20:08:00,63.1,43.0,29.61,ESE,112,8.0,13.6,48,0.00,,,0.00,WUHU21636XXSP,2013-04-14 01:08:00,
2013-04-13 20:18:00,62.4,42.3,29.61,SE,135,9.1,14.3,48,0.00,,,0.00,WUHU21636XXSP,2013-04-14 01:18:00,
2013-04-13 20:28:00,62.2,42.8,29.61,ESE,112,3.3,13.8,49,0.00,,,0.00,WUHU21636XXSP,2013-04-14 01:28:00,
2013-04-13 20:38:00,61.5,43.2,29.61,ESE,112,2.9,16.5,51,0.00,,,0.00,WUHU21636XXSP,2013-04-14 01:38:00,
2013-04-13 20:48:00,60.8,43.0,29.61,ESE,112,3.5,11.6,52,0.00,,,0.00,WUHU21636XXSP,2013-04-14 01:48:00,
2013-04-13 20:58:00,60.4,43.5,29.61,ESE,112,3.5,13.1,54,0.00,,,0.00,WUHU21636XXSP,2013-04-14 01:58:00,
2013-04-13 21:08:00,60.1,43.7,29.61,SE,135,10.9,20.8,55,0.00,,,0.00,WUHU21636XXSP,2013-04-14 02:08:00,
2013-04-13 21:18:00,59.9,44.1,29.61,East,90,5.8,20.3,56,0.00,,,0.00,WUHU21636XXSP,2013-04-14 02:18:00,
2013-04-13 21:28:00,59.4,44.1,29.62,East,90,8.9,14.9,57,0.00,,,0.00,WUHU21636XXSP,2013-04-14 02:28:00,
2013-04-13 21:38:00,59.0,44.1,29.62,SE,135,13.8,20.1,58,0.00,,,0.00,WUHU21636XXSP,2013-04-14 02:38:00,
2013-04-13 21:48:00,59.0,44.1,29.62,ESE,112,12.0,22.5,58,0.00,,,0.00,WUHU21636XXSP,2013-04-14 02:48:00,
2013-04-13 21:58:00,59.0,44.6,29.60,ESE,112,13.1,26.6,59,0.00,,,0.00,WUHU21636XXSP,2013-04-14 02:58:00,
2013-04-13 22:08:00,58.6,45.5,29.59,ESE,112,14.9,34.4,62,0.00,,,0.00,WUHU21636XXSP,2013-04-14 03:08:00,
2013-04-13 22:18:00,58.3,45.7,29.60,ESE,112,16.1,28.6,63,0.00,,,0.00,WUHU21636XXSP,2013-04-14 03:18:00,
2013-04-13 22:28:00,57.7,45.5,29.59,ESE,112,11.6,24.8,64,0.00,,,0.00,WUHU21636XXSP,2013-04-14 03:28:00,
2013-04-13 22:38:00,57.4,45.5,29.59,ENE,67,10.7,21.2,65,0.00,,,0.00,WUHU21636XXSP,2013-04-14 03:38:00,
2013-04-13 22:48:00,57.0,46.0,29.59,ENE,67,12.3,25.0,67,0.00,,,0.00,WUHU21636XXSP,2013-04-14 03:48:00,
2013-04-13 22:58:00,56.8,45.9,29.58,ESE,112,10.7,20.5,67,0.00,,,0.00,WUHU21636XXSP,2013-04-14 03:58:00,
2013-04-13 23:08:00,56.5,45.5,29.58,ENE,67,8.2,17.4,67,0.00,,,0.00,WUHU21636XXSP,2013-04-14 04:08:00,
2013-04-13 23:18:00,56.3,45.9,29.59,ENE,67,7.8,14.3,68,0.00,,,0.00,WUHU21636XXSP,2013-04-14 04:18:00,
2013-04-13 23:28:00,56.1,46.0,29.58,ESE,112,10.5,19.6,69,0.00,,,0.00,WUHU21636XXSP,2013-04-14 04:28:00,
2013-04-13 23:38:00,55.6,45.5,29.56,SE,135,9.8,18.1,69,0.00,,,0.00,WUHU21636XXSP,2013-04-14 04:38:00,
2013-04-13 23:48:00,55.0,45.5,29.55,East,90,8.7,14.9,70,0.00,,,0.00,WUHU21636XXSP,2013-04-14 04:48:00,
2013-04-13 23:58:00,55.0,45.7,29.55,ENE,67,10.0,19.4,71,0.00,,,0.00,WUHU21636XXSP,2013-04-14 04:58:00,